Time,TemperatureF,DewpointF,PressureIn,WindDirection,WindDirectionDegrees,WindSpeedMPH,WindSpeedGustMPH,Humidity,HourlyPrecipIn,Conditions,Clouds,dailyrainin,SoftwareType,DateUTC
2013-02-26 00:00:00,36.3,25.7,29.80,SW,225,2.3,0.0,65,0.00,CLR,,0.00,WeatherDisplay:10.37,2013-02-26 05:00:00,
2013-02-26 00:01:00,36.3,25.7,29.81,NE,45,2.3,2.3,65,0.00,CLR,,0.00,WeatherDisplay:10.37,2013-02-26 05:01:00,
2013-02-26 00:06:00,36.3,25.7,29.81,NW,315,1.2,1.2,65,0.00,CLR,,0.00,WeatherDisplay:10.37,2013-02-26 05:06:00,
2013-02-26 00:11:00,36.3,25.7,29.81,SW,225,3.5,3.5,65,0.00,CLR,,0.00,WeatherDisplay:10.37,2013-02-26 05:11:00,
2013-02-26 00:16:00,36.3,25.7,29.81,WSW,248,5.8,5.8,65,0.00,CLR,,0.00,WeatherDisplay:10.37,2013-02-26 05:16:00,
2013-02-26 00:21:00,36.3,25.7,29.81,South,180,4.6,4.6,65,0.00,CLR,,0.00,WeatherDisplay:10.37,2013-02-26 05:21:00,
2013-02-26 00:26:00,36.5,25.5,29.81,West,270,2.3,2.3,64,0.00,CLR,,0.00,WeatherDisplay:10.37,2013-02-26 05:26:00,
2013-02-26 00:31:00,36.7,25.6,29.81,North,0,2.3,2.3,64,0.00,CLR,,0.00,WeatherDisplay:10.37,2013-02-26 05:31:00,
2013-02-26 00:36:00,36.7,25.6,29.81,North,0,3.5,3.5,64,0.00,CLR,,0.00,WeatherDisplay:10.37,2013-02-26 05:36:00,
2013-02-26 00:41:00,36.9,25.8,29.81,SW,225,2.3,0.0,64,0.00,CLR,,0.00,WeatherDisplay:10.37,2013-02-26 05:41:00,
2013-02-26 00:46:00,36.9,25.4,29.81,South,180,2.3,2.3,63,0.00,CLR,,0.00,WeatherDisplay:10.37,2013-02-26 05:46:00,
2013-02-26 00:51:00,37.0,25.6,29.81,West,270,3.5,3.5,63,0.00,CLR,,0.00,WeatherDisplay:10.37,2013-02-26 05:51:00,
2013-02-26 00:56:00,37.0,25.6,29.80,SW,225,2.3,2.3,63,0.00,CLR,,0.00,WeatherDisplay:10.37,2013-02-26 05:56:00,
2013-02-26 01:01:00,37.0,25.6,29.80,West,270,2.3,2.3,63,0.00,CLR,,0.00,WeatherDisplay:10.37,2013-02-26 06:01:00,
2013-02-26 01:06:00,37.0,25.6,29.80,West,270,2.3,2.3,63,0.00,CLR,,0.00,WeatherDisplay:10.37,2013-02-26 06:06:00,
2013-02-26 01:11:00,37.2,25.4,29.80,South,180,5.8,5.8,62,0.00,CLR,,0.00,WeatherDisplay:10.37,2013-02-26 06:11:00,
2013-02-26 01:16:00,37.2,25.4,29.80,SW,225,2.3,2.3,62,0.00,CLR,,0.00,WeatherDisplay:10.37,2013-02-26 06:16:00,
2013-02-26 01:21:00,37.2,25.4,29.80,NE,45,5.8,5.8,62,0.00,CLR,,0.00,WeatherDisplay:10.37,2013-02-26 06:21:00,
2013-02-26 01:26:00,37.0,25.2,29.80,North,0,2.3,2.3,62,0.00,CLR,,0.00,WeatherDisplay:10.37,2013-02-26 06:26:00,
2013-02-26 01:31:00,37.0,25.2,29.80,SW,225,3.5,3.5,62,0.00,CLR,,0.00,WeatherDisplay:10.37,2013-02-26 06:31:00,
2013-02-26 01:36:00,37.0,25.2,29.80,East,90,3.5,3.5,62,0.00,CLR,,0.00,WeatherDisplay:10.37,2013-02-26 06:36:00,
2013-02-26 01:41:00,37.2,25.4,29.80,NW,315,5.8,0.0,62,0.00,CLR,,0.00,WeatherDisplay:10.37,2013-02-26 06:41:00,
2013-02-26 01:46:00,37.2,25.4,29.80,NW,315,3.5,3.5,62,0.00,CLR,,0.00,WeatherDisplay:10.37,2013-02-26 06:46:00,
2013-02-26 01:51:00,37.2,25.4,29.79,NW,315,3.5,3.5,62,0.00,CLR,,0.00,WeatherDisplay:10.37,2013-02-26 06:51:00,
2013-02-26 01:56:00,37.2,25.4,29.79,NW,315,3.5,3.5,62,0.00,CLR,,0.00,WeatherDisplay:10.37,2013-02-26 06:56:00,
2013-02-26 02:01:00,37.4,26.7,29.79,NW,315,5.8,5.8,65,0.00,CLR,,0.00,WeatherDisplay:10.37,2013-02-26 07:01:00,
2013-02-26 02:06:00,37.4,26.7,29.79,NW,315,3.5,3.5,65,0.00,CLR,,0.00,WeatherDisplay:10.37,2013-02-26 07:06:00,
2013-02-26 02:11:00,37.6,26.9,29.78,SW,225,3.5,3.5,65,0.00,CLR,,0.00,WeatherDisplay:10.37,2013-02-26 07:11:00,
2013-02-26 02:16:00,37.4,26.7,29.78,North,0,3.5,3.5,65,0.00,CLR,,0.00,WeatherDisplay:10.37,2013-02-26 07:16:00,
2013-02-26 02:21:00,37.6,27.2,29.77,West,270,3.5,3.5,66,0.00,CLR,,0.00,WeatherDisplay:10.37,2013-02-26 07:21:00,
2013-02-26 02:26:00,37.6,27.2,29.77,North,0,6.0,6.0,66,0.00,CLR,,0.00,WeatherDisplay:10.37,2013-02-26 07:26:00,
2013-02-26 02:31:00,37.4,27.1,29.77,North,0,3.5,3.5,66,0.00,CLR,,0.00,WeatherDisplay:10.37,2013-02-26 07:31:00,
2013-02-26 02:36:00,37.4,27.1,29.76,NW,315,3.5,3.5,66,0.00,CLR,,0.00,WeatherDisplay:10.37,2013-02-26 07:36:00,
2013-02-26 02:41:00,37.4,27.1,29.76,SW,225,4.6,4.6,66,0.00,CLR,,0.00,WeatherDisplay:10.37,2013-02-26 07:41:00,
2013-02-26 02:46:00,37.4,27.1,29.76,NW,315,3.5,3.5,66,0.00,CLR,,0.00,WeatherDisplay:10.37,2013-02-26 07:46:00,
2013-02-26 02:51:00,37.4,27.1,29.76,North,0,8.1,8.1,66,0.00,CLR,,0.00,WeatherDisplay:10.37,2013-02-26 07:51:00,
2013-02-26 02:56:00,37.2,25.4,29.76,NW,315,3.5,3.8,62,0.00,CLR,,0.00,WeatherDisplay:10.37,2013-02-26 07:56:00,
2013-02-26 03:01:00,37.2,25.8,29.76,North,0,4.6,4.6,63,0.00,CLR,,0.00,WeatherDisplay:10.37,2013-02-26 08:01:00,
2013-02-26 03:06:00,37.2,25.8,29.76,North,0,4.6,4.6,63,0.00,CLR,,0.00,WeatherDisplay:10.37,2013-02-26 08:06:00,
2013-02-26 03:11:00,37.2,25.8,29.76,West,270,3.5,4.5,63,0.00,CLR,,0.00,WeatherDisplay:10.37,2013-02-26 08:11:00,
2013-02-26 03:16:00,37.2,25.8,29.76,SW,225,3.5,3.5,63,0.00,CLR,,0.00,WeatherDisplay:10.37,2013-02-26 08:16:00,
2013-02-26 03:21:00,37.2,25.8,29.75,NE,45,3.5,3.5,63,0.00,CLR,,0.00,WeatherDisplay:10.37,2013-02-26 08:21:00,
2013-02-26 03:26:00,37.4,27.4,29.75,NW,315,3.5,3.5,67,0.00,CLR,,0.00,WeatherDisplay:10.37,2013-02-26 08:26:00,
2013-02-26 03:31:00,37.4,27.4,29.75,North,0,2.3,2.3,67,0.00,CLR,,0.00,WeatherDisplay:10.37,2013-02-26 08:31:00,
2013-02-26 03:36:00,37.4,27.4,29.74,East,90,3.5,3.5,67,0.00,CLR,,0.00,WeatherDisplay:10.37,2013-02-26 08:36:00,
2013-02-26 03:41:00,37.4,27.4,29.74,North,0,2.3,2.3,67,0.00,CLR,,0.00,WeatherDisplay:10.37,2013-02-26 08:41:00,
2013-02-26 03:46:00,37.4,27.8,29.73,NW,315,3.5,3.5,68,0.00,CLR,,0.00,WeatherDisplay:10.37,2013-02-26 08:46:00,
2013-02-26 03:51:00,37.4,27.8,29.73,West,270,2.3,2.3,68,0.00,CLR,,0.00,WeatherDisplay:10.37,2013-02-26 08:51:00,
2013-02-26 03:56:00,37.4,27.8,29.72,NW,315,3.5,3.5,68,0.00,CLR,,0.00,WeatherDisplay:10.37,2013-02-26 08:56:00,
2013-02-26 04:01:00,37.2,26.2,29.72,NE,45,5.4,5.4,64,0.00,CLR,,0.00,WeatherDisplay:10.37,2013-02-26 09:01:00,
2013-02-26 04:06:00,37.2,26.5,29.72,North,0,3.5,3.5,65,0.00,CLR,,0.00,WeatherDisplay:10.37,2013-02-26 09:06:00,
2013-02-26 04:11:00,37.0,26.4,29.71,North,0,3.5,3.5,65,0.00,CLR,,0.00,WeatherDisplay:10.37,2013-02-26 09:11:00,
2013-02-26 04:16:00,37.0,26.7,29.72,WNW,292,3.5,3.5,66,0.00,CLR,,0.00,WeatherDisplay:10.37,2013-02-26 09:16:00,
2013-02-26 04:21:00,37.0,27.1,29.71,North,0,5.8,5.8,67,0.00,CLR,,0.00,WeatherDisplay:10.37,2013-02-26 09:21:00,
2013-02-26 04:26:00,37.0,27.1,29.71,NW,315,3.5,3.5,67,0.00,CLR,,0.00,WeatherDisplay:10.37,2013-02-26 09:26:00,
2013-02-26 04:31:00,37.0,27.5,29.70,NW,315,5.8,5.8,68,0.00,CLR,,0.00,WeatherDisplay:10.37,2013-02-26 09:31:00,
2013-02-26 04:36:00,37.0,27.5,29.71,NW,315,5.8,5.8,68,0.00,CLR,,0.00,WeatherDisplay:10.37,2013-02-26 09:36:00,
2013-02-26 04:41:00,37.0,27.8,29.71,South,180,8.1,8.1,69,0.00,CLR,,0.00,WeatherDisplay:10.37,2013-02-26 09:41:00,
2013-02-26 04:46:00,37.2,28.0,29.72,NW,315,6.9,6.9,69,0.00,CLR,,0.00,WeatherDisplay:10.37,2013-02-26 09:46:00,
2013-02-26 04:51:00,37.4,29.9,29.73,NE,45,3.5,3.5,74,0.00,CLR,,0.00,WeatherDisplay:10.37,2013-02-26 09:51:00,
2013-02-26 04:56:00,37.4,29.9,29.73,NW,315,3.5,3.5,74,0.00,CLR,,0.00,WeatherDisplay:10.37,2013-02-26 09:56:00,
2013-02-26 05:01:00,37.4,29.9,29.73,WNW,292,2.3,2.3,74,0.00,CLR,,0.00,WeatherDisplay:10.37,2013-02-26 10:01:00,
2013-02-26 05:06:00,37.4,29.9,29.73,WNW,292,2.3,2.3,74,0.00,CLR,,0.00,WeatherDisplay:10.37,2013-02-26 10:06:00,
2013-02-26 05:11:00,37.6,30.4,29.73,NW,315,3.5,3.5,75,0.00,CLR,,0.00,WeatherDisplay:10.37,2013-02-26 10:11:00,
2013-02-26 05:16:00,37.6,30.4,29.72,NW,315,8.1,8.1,75,0.00,CLR,,0.00,WeatherDisplay:10.37,2013-02-26 10:16:00,
2013-02-26 05:21:00,37.6,30.4,29.71,NW,315,3.5,3.5,75,0.00,CLR,,0.00,WeatherDisplay:10.37,2013-02-26 10:21:00,
2013-02-26 05:26:00,37.6,30.4,29.69,SW,225,6.0,6.0,75,0.00,CLR,,0.00,WeatherDisplay:10.37,2013-02-26 10:26:00,
2013-02-26 05:31:00,37.4,30.2,29.69,NW,315,3.5,3.8,75,0.00,CLR,,0.00,WeatherDisplay:10.37,2013-02-26 10:31:00,
2013-02-26 05:36:00,37.4,30.2,29.69,SE,135,4.6,4.6,75,0.00,CLR,,0.00,WeatherDisplay:10.37,2013-02-26 10:36:00,
2013-02-26 05:41:00,37.4,30.5,29.69,NW,315,4.6,4.6,76,0.00,CLR,,0.00,WeatherDisplay:10.37,2013-02-26 10:41:00,
2013-02-26 05:46:00,37.4,30.5,29.69,SE,135,6.9,6.9,76,0.00,CLR,,0.00,WeatherDisplay:10.37,2013-02-26 10:46:00,
2013-02-26 05:51:00,37.6,30.7,29.69,West,270,8.1,8.1,76,0.00,CLR,,0.00,WeatherDisplay:10.37,2013-02-26 10:51:00,
2013-02-26 05:56:00,37.6,30.7,29.69,NE,45,6.9,6.9,76,0.00,CLR,,0.00,WeatherDisplay:10.37,2013-02-26 10:56:00,
2013-02-26 06:01:00,37.8,31.2,29.69,South,180,9.2,9.2,77,0.00,CLR,,0.00,WeatherDisplay:10.37,2013-02-26 11:01:00,
2013-02-26 06:06:00,37.9,31.4,29.69,SW,225,3.5,3.5,77,0.00,CLR,,0.00,WeatherDisplay:10.37,2013-02-26 11:06:00,
2013-02-26 06:11:00,38.1,31.5,29.69,NW,315,6.9,6.9,77,0.00,CLR,,0.00,WeatherDisplay:10.37,2013-02-26 11:11:00,
2013-02-26 06:16:00,38.1,31.5,29.69,NW,315,4.6,4.6,77,0.00,CLR,,0.00,WeatherDisplay:10.37,2013-02-26 11:16:00,
2013-02-26 06:21:00,38.1,31.5,29.69,SW,225,6.9,6.9,77,0.00,CLR,,0.00,WeatherDisplay:10.37,2013-02-26 11:21:00,
2013-02-26 06:26:00,38.3,31.7,29.69,NW,315,4.6,4.6,77,0.00,CLR,,0.00,WeatherDisplay:10.37,2013-02-26 11:26:00,
2013-02-26 06:31:00,38.3,31.7,29.69,NW,315,3.5,3.5,77,0.00,CLR,,0.00,WeatherDisplay:10.37,2013-02-26 11:31:00,
2013-02-26 06:36:00,38.5,31.9,29.69,North,0,3.5,3.5,77,0.00,CLR,,0.00,WeatherDisplay:10.37,2013-02-26 11:36:00,
2013-02-26 06:41:00,38.5,31.9,29.70,NE,45,3.5,3.5,77,0.00,CLR,,0.00,WeatherDisplay:10.37,2013-02-26 11:41:00,
2013-02-26 06:46:00,38.7,32.1,29.70,South,180,3.5,3.5,77,0.00,CLR,,0.00,WeatherDisplay:10.37,2013-02-26 11:46:00,
2013-02-26 06:51:00,38.7,32.1,29.70,North,0,3.5,3.5,77,0.00,CLR,,0.00,WeatherDisplay:10.37,2013-02-26 11:51:00,
2013-02-26 06:56:00,38.5,32.2,29.70,WSW,248,4.6,4.6,78,0.00,CLR,,0.00,WeatherDisplay:10.37,2013-02-26 11:56:00,
2013-02-26 07:01:00,38.5,32.5,29.69,NW,315,2.3,2.3,79,0.00,CLR,,0.00,WeatherDisplay:10.37,2013-02-26 12:01:00,
2013-02-26 07:06:00,38.5,32.5,29.69,NW,315,2.3,2.3,79,0.00,CLR,,0.00,WeatherDisplay:10.37,2013-02-26 12:06:00,
2013-02-26 07:11:00,37.8,32.8,29.69,SW,225,5.8,5.8,82,0.01,RA,,0.01,WeatherDisplay:10.37,2013-02-26 12:11:00,
2013-02-26 07:16:00,37.6,33.2,29.69,NE,45,3.5,3.5,84,0.01,RA,,0.02,WeatherDisplay:10.37,2013-02-26 12:16:00,
2013-02-26 07:21:00,37.6,33.5,29.69,NE,45,3.5,3.5,85,0.02,RA,,0.02,WeatherDisplay:10.37,2013-02-26 12:21:00,
2013-02-26 07:26:00,37.6,33.8,29.69,NW,315,3.5,3.5,86,0.02,RA,,0.02,WeatherDisplay:10.37,2013-02-26 12:26:00,
2013-02-26 07:31:00,37.4,33.9,29.69,West,270,3.5,3.5,87,0.02,CLR,,0.02,WeatherDisplay:10.37,2013-02-26 12:31:00,
2013-02-26 07:36:00,37.6,34.1,29.69,NW,315,3.5,3.5,87,0.04,RA,,0.04,WeatherDisplay:10.37,2013-02-26 12:36:00,
2013-02-26 07:41:00,37.6,34.3,29.68,WNW,292,3.5,3.5,88,0.04,RA,,0.04,WeatherDisplay:10.37,2013-02-26 12:41:00,
2013-02-26 07:46:00,37.6,34.6,29.68,NW,315,3.5,3.5,89,0.05,RA,,0.05,WeatherDisplay:10.37,2013-02-26 12:46:00,
2013-02-26 07:51:00,37.6,34.6,29.68,NW,315,4.6,4.6,89,0.05,RA,,0.05,WeatherDisplay:10.37,2013-02-26 12:51:00,
2013-02-26 07:56:00,37.6,34.9,29.67,North,0,5.8,5.8,90,0.06,RA,,0.06,WeatherDisplay:10.37,2013-02-26 12:56:00,
2013-02-26 08:01:00,37.6,34.9,29.67,SSE,158,3.5,3.5,90,0.06,RA,,0.06,WeatherDisplay:10.37,2013-02-26 13:01:00,
2013-02-26 08:06:00,37.6,35.2,29.67,NW,315,4.6,4.6,91,0.07,RA,,0.07,WeatherDisplay:10.37,2013-02-26 13:06:00,
2013-02-26 08:11:00,37.6,35.2,29.67,NW,315,4.6,4.6,91,0.06,RA,,0.07,WeatherDisplay:10.37,2013-02-26 13:11:00,
2013-02-26 08:16:00,37.6,35.5,29.67,South,180,9.2,9.2,92,0.07,RA,,0.08,WeatherDisplay:10.37,2013-02-26 13:16:00,
2013-02-26 08:21:00,37.8,35.6,29.67,North,0,4.6,4.6,92,0.06,RA,,0.08,WeatherDisplay:10.37,2013-02-26 13:21:00,
2013-02-26 08:26:00,37.9,36.1,29.67,NE,45,3.5,3.5,93,0.06,CLR,,0.08,WeatherDisplay:10.37,2013-02-26 13:26:00,
2013-02-26 08:31:00,38.1,36.3,29.66,NE,45,3.5,3.5,93,0.06,CLR,,0.08,WeatherDisplay:10.37,2013-02-26 13:31:00,
2013-02-26 08:36:00,38.3,36.5,29.66,East,90,8.1,8.1,93,0.06,RA,,0.09,WeatherDisplay:10.37,2013-02-26 13:36:00,
2013-02-26 08:41:00,38.3,36.7,29.66,NW,315,5.8,5.8,94,0.06,RA,,0.09,WeatherDisplay:10.37,2013-02-26 13:41:00,
2013-02-26 08:46:00,38.5,36.9,29.66,NW,315,8.1,8.1,94,0.05,CLR,,0.09,WeatherDisplay:10.37,2013-02-26 13:46:00,
2013-02-26 08:51:00,38.7,37.1,29.66,NW,315,3.5,3.5,94,0.05,CLR,,0.09,WeatherDisplay:10.37,2013-02-26 13:51:00,
2013-02-26 08:56:00,38.8,37.5,29.65,NW,315,4.6,4.6,95,0.05,RA,,0.11,WeatherDisplay:10.37,2013-02-26 13:56:00,
2013-02-26 09:01:00,39.0,37.7,29.65,North,0,3.5,3.5,95,0.05,RA,,0.11,WeatherDisplay:10.37,2013-02-26 14:01:00,
2013-02-26 09:06:00,39.4,37.8,29.65,South,180,3.5,3.5,94,0.04,,,0.11,WeatherDisplay:10.37,2013-02-26 14:06:00,
2013-02-26 09:11:00,39.6,38.2,29.65,NW,315,4.6,4.6,95,0.04,CLR,,0.11,WeatherDisplay:10.37,2013-02-26 14:11:00,
2013-02-26 09:16:00,39.9,38.6,29.65,North,0,9.2,9.2,95,0.04,RA,,0.12,WeatherDisplay:10.37,2013-02-26 14:16:00,
2013-02-26 09:21:00,40.1,38.8,29.65,North,0,8.1,8.1,95,0.04,RA,,0.12,WeatherDisplay:10.37,2013-02-26 14:21:00,
2013-02-26 09:26:00,40.3,39.0,29.64,South,180,5.8,5.8,95,0.05,RA,,0.13,WeatherDisplay:10.37,2013-02-26 14:26:00,
2013-02-26 09:31:00,40.1,38.8,29.63,NW,315,7.6,7.6,95,0.05,RA,,0.13,WeatherDisplay:10.37,2013-02-26 14:31:00,
2013-02-26 09:36:00,40.1,38.8,29.63,North,0,5.8,5.8,95,0.05,RA,,0.14,WeatherDisplay:10.37,2013-02-26 14:36:00,
2013-02-26 09:41:00,40.3,39.0,29.63,South,180,10.4,10.4,95,0.06,RA,,0.15,WeatherDisplay:10.37,2013-02-26 14:41:00,
2013-02-26 09:46:00,40.5,39.1,29.63,South,180,3.5,3.5,95,0.06,RA,,0.15,WeatherDisplay:10.37,2013-02-26 14:46:00,
2013-02-26 09:51:00,40.6,39.3,29.63,SW,225,6.9,6.9,95,0.06,,,0.15,WeatherDisplay:10.37,2013-02-26 14:51:00,
2013-02-26 09:56:00,40.8,39.8,29.62,NW,315,8.1,8.1,96,0.05,CLR,,0.15,WeatherDisplay:10.37,2013-02-26 14:56:00,
2013-02-26 10:01:00,41.2,39.9,29.62,NW,315,6.9,6.9,95,0.06,RA,,0.17,WeatherDisplay:10.37,2013-02-26 15:01:00,
2013-02-26 10:06:00,41.5,40.2,29.61,North,0,9.2,9.2,95,0.06,RA,,0.17,WeatherDisplay:10.37,2013-02-26 15:06:00,
2013-02-26 10:11:00,41.9,40.6,29.61,SW,225,6.9,6.9,95,0.07,RA,,0.18,WeatherDisplay:10.37,2013-02-26 15:11:00,
2013-02-26 10:16:00,42.1,41.0,29.61,NNE,22,5.8,5.8,96,0.06,RA,,0.18,WeatherDisplay:10.37,2013-02-26 15:16:00,
2013-02-26 10:21:00,42.3,41.2,29.60,North,0,6.9,6.9,96,0.06,CLR,,0.18,WeatherDisplay:10.37,2013-02-26 15:21:00,
2013-02-26 10:26:00,42.4,41.4,29.59,SE,135,9.2,9.2,96,0.06,RA,,0.19,WeatherDisplay:10.37,2013-02-26 15:26:00,
2013-02-26 10:31:00,42.6,41.6,29.59,SW,225,8.1,8.1,96,0.06,RA,,0.19,WeatherDisplay:10.37,2013-02-26 15:31:00,
2013-02-26 10:36:00,42.8,41.5,29.59,North,0,8.1,8.1,95,0.06,RA,,0.20,WeatherDisplay:10.37,2013-02-26 15:36:00,
2013-02-26 10:41:00,43.0,41.9,29.58,NW,315,5.8,5.8,96,0.05,RA,,0.20,WeatherDisplay:10.37,2013-02-26 15:41:00,
2013-02-26 10:46:00,43.2,42.1,29.58,North,0,8.1,8.1,96,0.05,,,0.20,WeatherDisplay:10.37,2013-02-26 15:46:00,
2013-02-26 10:51:00,43.7,42.6,29.57,WNW,292,11.5,11.5,96,0.06,RA,,0.22,WeatherDisplay:10.37,2013-02-26 15:51:00,
2013-02-26 10:56:00,43.9,42.8,29.57,NW,315,5.8,6.0,96,0.07,RA,,0.22,WeatherDisplay:10.37,2013-02-26 15:56:00,
2013-02-26 11:01:00,44.4,43.6,29.57,NW,315,8.1,8.1,97,0.07,RA,,0.24,WeatherDisplay:10.37,2013-02-26 16:01:00,
2013-02-26 11:06:00,44.8,43.7,29.57,SW,225,10.7,10.7,96,0.07,RA,,0.25,WeatherDisplay:10.37,2013-02-26 16:06:00,
2013-02-26 11:11:00,45.1,44.1,29.57,SW,225,8.1,8.1,96,0.07,RA,,0.25,WeatherDisplay:10.37,2013-02-26 16:11:00,
2013-02-26 11:16:00,45.5,44.4,29.56,West,270,9.2,9.2,96,0.07,RA,,0.26,WeatherDisplay:10.37,2013-02-26 16:16:00,
2013-02-26 11:21:00,45.5,44.4,29.55,NW,315,4.6,4.6,96,0.08,RA,,0.26,WeatherDisplay:10.37,2013-02-26 16:21:00,
2013-02-26 11:26:00,45.5,44.4,29.55,NW,315,17.3,17.3,96,0.11,RA,,0.30,WeatherDisplay:10.37,2013-02-26 16:26:00,
2013-02-26 11:31:00,45.3,44.2,29.54,SW,225,12.7,12.7,96,0.12,RA,,0.31,WeatherDisplay:10.37,2013-02-26 16:31:00,
2013-02-26 11:36:00,45.7,44.9,29.53,SW,225,10.4,10.4,97,0.11,RA,,0.31,WeatherDisplay:10.37,2013-02-26 16:36:00,
2013-02-26 11:41:00,45.7,44.9,29.52,West,270,10.4,10.4,97,0.12,RA,,0.32,WeatherDisplay:10.37,2013-02-26 16:41:00,
2013-02-26 11:46:00,45.9,45.1,29.52,SW,225,6.9,6.9,97,0.13,RA,,0.33,WeatherDisplay:10.37,2013-02-26 16:46:00,
2013-02-26 11:51:00,46.2,45.4,29.51,WSW,248,11.5,11.5,97,0.12,RA,,0.33,WeatherDisplay:10.37,2013-02-26 16:51:00,
2013-02-26 11:56:00,46.4,45.3,29.52,NW,315,8.1,8.1,96,0.12,RA,,0.34,WeatherDisplay:10.37,2013-02-26 16:56:00,
2013-02-26 12:01:00,46.6,45.5,29.51,WSW,248,6.9,6.9,96,0.12,RA,,0.35,WeatherDisplay:10.37,2013-02-26 17:01:00,
2013-02-26 12:06:00,46.8,46.0,29.51,West,270,11.5,11.5,97,0.13,RA,,0.37,WeatherDisplay:10.37,2013-02-26 17:06:00,
2013-02-26 12:11:00,46.9,46.1,29.51,SW,225,10.4,10.4,97,0.13,RA,,0.38,WeatherDisplay:10.37,2013-02-26 17:11:00,
2013-02-26 12:16:00,47.1,46.3,29.50,South,180,11.5,11.5,97,0.14,RA,,0.39,WeatherDisplay:10.37,2013-02-26 17:16:00,
2013-02-26 12:21:00,47.3,46.5,29.50,SW,225,6.9,6.9,97,0.14,RA,,0.40,WeatherDisplay:10.37,2013-02-26 17:21:00,
2013-02-26 12:26:00,47.8,47.0,29.49,West,270,12.7,12.7,97,0.13,RA,,0.43,WeatherDisplay:10.37,2013-02-26 17:26:00,
2013-02-26 12:31:00,48.2,47.4,29.49,NW,315,12.7,12.7,97,0.13,RA,,0.44,WeatherDisplay:10.37,2013-02-26 17:31:00,
2013-02-26 12:36:00,48.6,47.7,29.48,North,1,16.1,16.1,97,0.15,RA,,0.46,WeatherDisplay:10.37,2013-02-26 17:36:00,
2013-02-26 12:41:00,48.9,48.1,29.47,West,270,15.0,15.0,97,0.14,RA,,0.47,WeatherDisplay:10.37,2013-02-26 17:41:00,
2013-02-26 12:46:00,49.1,48.3,29.47,WNW,292,10.4,12.1,97,0.14,RA,,0.48,WeatherDisplay:10.37,2013-02-26 17:46:00,
2013-02-26 12:51:00,49.1,48.3,29.47,NW,315,10.4,10.4,97,0.15,RA,,0.50,WeatherDisplay:10.37,2013-02-26 17:51:00,
2013-02-26 12:56:00,49.3,48.5,29.45,SW,225,12.7,12.7,97,0.17,RA,,0.51,WeatherDisplay:10.37,2013-02-26 17:56:00,
2013-02-26 13:01:00,49.5,48.6,29.45,SW,225,12.7,12.7,97,0.17,RA,,0.52,WeatherDisplay:10.37,2013-02-26 18:01:00,
2013-02-26 13:06:00,49.6,48.8,29.44,NW,315,4.6,4.6,97,0.17,RA,,0.53,WeatherDisplay:10.37,2013-02-26 18:06:00,
2013-02-26 13:11:00,49.6,48.8,29.43,North,0,8.1,8.1,97,0.18,RA,,0.56,WeatherDisplay:10.37,2013-02-26 18:11:00,
2013-02-26 13:16:00,50.0,49.2,29.43,SW,225,5.8,5.8,97,0.17,RA,,0.56,WeatherDisplay:10.37,2013-02-26 18:16:00,
2013-02-26 13:21:00,50.2,49.4,29.43,West,270,8.1,8.1,97,0.17,RA,,0.57,WeatherDisplay:10.37,2013-02-26 18:21:00,
2013-02-26 13:26:00,50.2,49.4,29.42,NW,315,8.1,8.1,97,0.14,RA,,0.57,WeatherDisplay:10.37,2013-02-26 18:26:00,
2013-02-26 13:31:00,50.5,49.7,29.42,South,180,6.9,6.9,97,0.14,RA,,0.59,WeatherDisplay:10.37,2013-02-26 18:31:00,
2013-02-26 13:36:00,50.7,49.9,29.41,NW,315,12.7,12.7,97,0.13,RA,,0.59,WeatherDisplay:10.37,2013-02-26 18:36:00,
2013-02-26 13:41:00,51.1,50.3,29.40,NW,315,12.7,12.7,97,0.13,RA,,0.59,WeatherDisplay:10.37,2013-02-26 18:41:00,
2013-02-26 13:46:00,51.3,50.4,29.40,SW,225,10.4,10.4,97,0.12,CLR,,0.59,WeatherDisplay:10.37,2013-02-26 18:46:00,
2013-02-26 13:51:00,51.4,50.6,29.40,SW,225,9.2,9.2,97,0.12,RA,,0.60,WeatherDisplay:10.37,2013-02-26 18:51:00,
2013-02-26 13:56:00,51.8,51.0,29.39,West,270,13.8,13.8,97,0.11,RA,,0.61,WeatherDisplay:10.37,2013-02-26 18:56:00,
2013-02-26 14:01:00,52.2,51.3,29.37,WNW,292,17.3,17.3,97,0.11,RA,,0.63,WeatherDisplay:10.37,2013-02-26 19:01:00,
2013-02-26 14:06:00,52.3,51.5,29.38,East,90,9.2,9.2,97,0.09,RA,,0.63,WeatherDisplay:10.37,2013-02-26 19:06:00,
2013-02-26 14:11:00,52.7,51.9,29.36,South,180,15.0,15.0,97,0.08,RA,,0.64,WeatherDisplay:10.37,2013-02-26 19:11:00,
2013-02-26 14:16:00,53.1,52.2,29.36,NW,315,9.2,9.2,97,0.08,RA,,0.64,WeatherDisplay:10.37,2013-02-26 19:16:00,
2013-02-26 14:21:00,53.2,52.4,29.36,WSW,248,17.3,17.3,97,0.08,RA,,0.65,WeatherDisplay:10.37,2013-02-26 19:21:00,
2013-02-26 14:26:00,53.6,52.8,29.36,WSW,248,11.5,11.5,97,0.08,RA,,0.65,WeatherDisplay:10.37,2013-02-26 19:26:00,
2013-02-26 14:31:00,53.8,52.9,29.36,NW,315,9.2,9.2,97,0.07,CLR,,0.65,WeatherDisplay:10.37,2013-02-26 19:31:00,
2013-02-26 14:36:00,54.1,53.3,29.36,West,270,12.7,12.7,97,0.06,CLR,,0.65,WeatherDisplay:10.37,2013-02-26 19:36:00,
2013-02-26 14:41:00,54.3,53.5,29.36,South,180,12.7,12.7,97,0.06,CLR,,0.69,WeatherDisplay:10.37,2013-02-26 19:41:00,
2013-02-26 14:46:00,54.5,53.7,29.35,South,180,13.8,13.8,97,0.09,RA,,0.69,WeatherDisplay:10.37,2013-02-26 19:46:00,
2013-02-26 14:51:00,54.7,53.8,29.35,NW,315,16.1,16.1,97,0.08,RA,,0.69,WeatherDisplay:10.37,2013-02-26 19:51:00,
2013-02-26 14:56:00,54.9,54.0,29.33,WSW,248,13.8,13.8,97,0.09,RA,,0.71,WeatherDisplay:10.37,2013-02-26 19:56:00,
2013-02-26 15:01:00,55.0,54.2,29.33,NNW,338,12.7,12.7,97,0.08,RA,,0.71,WeatherDisplay:10.37,2013-02-26 20:01:00,
2013-02-26 15:06:00,55.2,54.4,29.32,SW,225,10.4,10.4,97,0.08,CLR,,0.71,WeatherDisplay:10.37,2013-02-26 20:06:00,
2013-02-26 15:11:00,55.4,54.3,29.32,South,180,10.4,12.1,96,0.07,CLR,,0.72,WeatherDisplay:10.37,2013-02-26 20:11:00,
2013-02-26 15:16:00,55.6,54.5,29.31,SW,225,15.0,15.0,96,0.08,RA,,0.72,WeatherDisplay:10.37,2013-02-26 20:16:00,
2013-02-26 15:21:00,55.8,54.6,29.30,SW,225,8.1,8.1,96,0.07,RA,,0.74,WeatherDisplay:10.37,2013-02-26 20:21:00,
2013-02-26 15:26:00,55.9,55.1,29.30,NW,315,12.7,12.7,97,0.09,RA,,0.74,WeatherDisplay:10.37,2013-02-26 20:26:00,
2013-02-26 15:31:00,56.3,55.5,29.29,West,270,11.5,11.5,97,0.09,RA,,0.74,WeatherDisplay:10.37,2013-02-26 20:31:00,
2013-02-26 15:36:00,56.5,55.6,29.29,SW,225,15.0,15.0,97,0.09,CLR,,0.74,WeatherDisplay:10.37,2013-02-26 20:36:00,
2013-02-26 15:41:00,56.7,55.8,29.28,WSW,248,10.7,10.7,97,0.09,CLR,,0.74,WeatherDisplay:10.37,2013-02-26 20:41:00,
2013-02-26 15:46:00,56.8,56.0,29.28,SW,225,12.7,12.7,97,0.06,CLR,,0.74,WeatherDisplay:10.37,2013-02-26 20:46:00,
2013-02-26 15:51:00,57.0,56.2,29.27,SW,225,16.1,16.1,97,0.06,CLR,,0.74,WeatherDisplay:10.37,2013-02-26 20:51:00,
2013-02-26 15:56:00,57.0,56.2,29.27,SW,225,12.7,12.7,97,0.04,CLR,,0.74,WeatherDisplay:10.37,2013-02-26 20:56:00,
2013-02-26 16:01:00,57.2,56.1,29.26,SW,225,16.1,16.1,96,0.04,CLR,,0.74,WeatherDisplay:10.37,2013-02-26 21:01:00,
2013-02-26 16:06:00,57.2,56.1,29.26,South,180,20.7,20.7,96,0.04,CLR,,0.74,WeatherDisplay:10.37,2013-02-26 21:06:00,
2013-02-26 16:11:00,57.4,56.2,29.26,SW,225,11.5,11.5,96,0.04,CLR,,0.74,WeatherDisplay:10.37,2013-02-26 21:11:00,
2013-02-26 16:16:00,57.4,56.0,29.26,SW,225,10.4,10.4,95,0.02,CLR,,0.74,WeatherDisplay:10.37,2013-02-26 21:16:00,
2013-02-26 16:21:00,57.4,56.0,29.27,WSW,248,11.5,11.5,95,0.02,CLR,,0.74,WeatherDisplay:10.37,2013-02-26 21:21:00,
2013-02-26 16:26:00,57.4,56.0,29.25,North,10,9.2,9.2,95,0.00,CLR,,0.74,WeatherDisplay:10.37,2013-02-26 21:26:00,
2013-02-26 16:31:00,57.4,56.0,29.27,SW,225,9.2,9.2,95,0.00,CLR,,0.74,WeatherDisplay:10.37,2013-02-26 21:31:00,
2013-02-26 16:36:00,57.6,56.1,29.27,SW,225,8.1,8.3,95,0.00,CLR,,0.74,WeatherDisplay:10.37,2013-02-26 21:36:00,
2013-02-26 16:41:00,57.6,56.1,29.25,South,180,8.1,8.3,95,0.00,CLR,,0.76,WeatherDisplay:10.37,2013-02-26 21:41:00,
2013-02-26 16:46:00,57.6,56.4,29.26,SW,225,9.2,9.2,96,0.01,RA,,0.77,WeatherDisplay:10.37,2013-02-26 21:46:00,
2013-02-26 16:51:00,57.6,56.4,29.25,SW,225,8.1,8.1,96,0.02,RA,,0.77,WeatherDisplay:10.37,2013-02-26 21:51:00,
2013-02-26 16:56:00,57.6,56.4,29.25,SW,225,6.9,6.9,96,0.04,RA,,0.78,WeatherDisplay:10.37,2013-02-26 21:56:00,
2013-02-26 17:01:00,57.6,56.4,29.25,SW,225,5.8,5.8,96,0.05,RA,,0.79,WeatherDisplay:10.37,2013-02-26 22:01:00,
2013-02-26 17:06:00,57.7,56.6,29.24,WSW,248,5.8,5.8,96,0.05,RA,,0.79,WeatherDisplay:10.37,2013-02-26 22:06:00,
2013-02-26 17:11:00,57.9,56.8,29.25,SW,225,9.2,9.2,96,0.05,,,0.79,WeatherDisplay:10.37,2013-02-26 22:11:00,
2013-02-26 17:16:00,58.1,57.0,29.24,SW,225,6.9,6.9,96,0.05,CLR,,0.79,WeatherDisplay:10.37,2013-02-26 22:16:00,
2013-02-26 17:21:00,58.1,57.0,29.24,SW,225,5.8,5.8,96,0.05,CLR,,0.79,WeatherDisplay:10.37,2013-02-26 22:21:00,
2013-02-26 17:26:00,58.1,57.0,29.24,SW,225,4.6,4.6,96,0.05,CLR,,0.79,WeatherDisplay:10.37,2013-02-26 22:26:00,
2013-02-26 17:31:00,58.3,57.4,29.24,NW,315,5.8,5.8,97,0.05,CLR,,0.79,WeatherDisplay:10.37,2013-02-26 22:31:00,
2013-02-26 17:37:00,58.5,57.6,29.23,SW,225,5.8,5.8,97,0.05,CLR,,0.79,WeatherDisplay:10.37,2013-02-26 22:37:00,
2013-02-26 17:42:00,58.5,57.6,29.23,SW,225,5.8,5.8,97,0.04,CLR,,0.79,WeatherDisplay:10.37,2013-02-26 22:42:00,
2013-02-26 17:47:00,58.6,57.8,29.23,SW,225,4.6,4.6,97,0.02,CLR,,0.79,WeatherDisplay:10.37,2013-02-26 22:47:00,
2013-02-26 17:52:00,58.8,58.0,29.23,West,270,5.8,5.8,97,0.02,CLR,,0.79,WeatherDisplay:10.37,2013-02-26 22:52:00,
2013-02-26 17:57:00,58.8,58.0,29.24,SE,135,5.8,5.8,97,0.01,CLR,,0.79,WeatherDisplay:10.37,2013-02-26 22:57:00,
2013-02-26 18:02:00,58.8,58.0,29.23,SW,225,3.5,3.5,97,0.00,CLR,,0.79,WeatherDisplay:10.37,2013-02-26 23:02:00,
2013-02-26 18:07:00,58.8,58.0,29.24,SW,225,3.5,3.5,97,0.00,CLR,,0.79,WeatherDisplay:10.37,2013-02-26 23:07:00,
2013-02-26 18:12:00,59.0,57.9,29.24,SW,225,3.5,3.5,96,0.00,CLR,,0.79,WeatherDisplay:10.37,2013-02-26 23:12:00,
2013-02-26 18:17:00,59.0,57.9,29.24,SW,225,5.8,5.8,96,0.00,CLR,,0.79,WeatherDisplay:10.37,2013-02-26 23:17:00,
2013-02-26 18:22:00,59.2,58.3,29.23,SW,225,5.8,5.8,97,0.00,CLR,,0.79,WeatherDisplay:10.37,2013-02-26 23:22:00,
2013-02-26 18:27:00,59.4,58.5,29.23,SW,225,4.6,4.6,97,0.00,CLR,,0.79,WeatherDisplay:10.37,2013-02-26 23:27:00,
2013-02-26 18:32:00,59.5,58.7,29.23,SW,225,5.8,5.8,97,0.00,CLR,,0.79,WeatherDisplay:10.37,2013-02-26 23:32:00,
2013-02-26 18:37:00,59.7,58.9,29.23,WSW,248,4.6,4.6,97,0.00,CLR,,0.79,WeatherDisplay:10.37,2013-02-26 23:37:00,
2013-02-26 18:42:00,59.7,58.9,29.24,SW,225,2.3,2.3,97,0.00,CLR,,0.79,WeatherDisplay:10.37,2013-02-26 23:42:00,
2013-02-26 18:47:00,59.9,59.0,29.24,SW,225,5.8,5.8,97,0.00,CLR,,0.79,WeatherDisplay:10.37,2013-02-26 23:47:00,
2013-02-26 18:52:00,60.1,59.2,29.23,SW,225,5.8,5.8,97,0.00,CLR,,0.79,WeatherDisplay:10.37,2013-02-26 23:52:00,
2013-02-26 18:57:00,60.1,59.2,29.24,SW,225,4.6,4.6,97,0.00,CLR,,0.79,WeatherDisplay:10.37,2013-02-26 23:57:00,
2013-02-26 19:02:00,60.1,59.2,29.24,SW,225,3.5,3.5,97,0.00,CLR,,0.79,WeatherDisplay:10.37,2013-02-27 00:02:00,
2013-02-26 19:07:00,60.1,59.2,29.24,SW,225,3.5,3.5,97,0.00,CLR,,0.79,WeatherDisplay:10.37,2013-02-27 00:07:00,
2013-02-26 19:12:00,60.3,59.7,29.24,SW,225,4.6,4.6,98,0.00,CLR,,0.79,WeatherDisplay:10.37,2013-02-27 00:12:00,
2013-02-26 19:17:00,59.9,59.0,29.23,SW,225,3.5,3.5,97,0.00,CLR,,0.79,WeatherDisplay:10.37,2013-02-27 00:17:00,
2013-02-26 19:22:00,59.9,59.0,29.24,SE,135,1.2,0.0,97,0.00,CLR,,0.79,WeatherDisplay:10.37,2013-02-27 00:22:00,
2013-02-26 19:27:00,59.9,59.0,29.24,South,180,0.0,0.0,97,0.00,CLR,,0.79,WeatherDisplay:10.37,2013-02-27 00:27:00,
2013-02-26 19:32:00,59.9,59.0,29.24,SW,225,1.2,1.2,97,0.00,CLR,,0.79,WeatherDisplay:10.37,2013-02-27 00:32:00,
2013-02-26 19:37:00,59.9,59.3,29.24,SW,225,3.5,3.5,98,0.00,CLR,,0.79,WeatherDisplay:10.37,2013-02-27 00:37:00,
2013-02-26 19:42:00,59.7,59.2,29.25,NE,45,6.9,7.6,98,0.00,CLR,,0.79,WeatherDisplay:10.37,2013-02-27 00:42:00,
2013-02-26 19:47:00,59.7,58.9,29.26,ENE,68,6.9,6.9,97,0.00,CLR,,0.79,WeatherDisplay:10.37,2013-02-27 00:47:00,
2013-02-26 19:52:00,59.7,58.9,29.25,SW,225,3.5,3.5,97,0.01,RA,,0.80,WeatherDisplay:10.37,2013-02-27 00:52:00,
2013-02-26 19:57:00,59.7,59.2,29.25,West,270,1.2,1.2,98,0.02,RA,,0.81,WeatherDisplay:10.37,2013-02-27 00:57:00,
2013-02-26 20:02:00,59.7,59.2,29.25,SE,135,1.2,0.0,98,0.02,RA,,0.81,WeatherDisplay:10.37,2013-02-27 01:02:00,
2013-02-26 20:07:00,59.5,58.7,29.25,SSW,202,2.3,0.0,97,0.02,CLR,,0.81,WeatherDisplay:10.37,2013-02-27 01:07:00,
2013-02-26 20:12:00,59.4,58.5,29.26,SSE,158,2.3,2.3,97,0.02,CLR,,0.81,WeatherDisplay:10.37,2013-02-27 01:12:00,
2013-02-26 20:17:00,59.2,58.3,29.26,SW,225,3.5,0.0,97,0.02,CLR,,0.81,WeatherDisplay:10.37,2013-02-27 01:17:00,
2013-02-26 20:22:00,59.2,58.3,29.27,SW,225,1.2,0.0,97,0.02,CLR,,0.81,WeatherDisplay:10.37,2013-02-27 01:22:00,
2013-02-26 20:27:00,59.0,58.2,29.26,South,180,1.2,1.2,97,0.02,CLR,,0.81,WeatherDisplay:10.37,2013-02-27 01:27:00,
2013-02-26 20:32:00,58.6,58.1,29.27,East,90,1.2,1.2,98,0.02,CLR,,0.81,WeatherDisplay:10.37,2013-02-27 01:32:00,
2013-02-26 20:37:00,58.5,57.9,29.27,NE,45,3.5,3.5,98,0.02,CLR,,0.81,WeatherDisplay:10.37,2013-02-27 01:37:00,
2013-02-26 20:42:00,58.5,57.9,29.27,NE,45,2.3,0.0,98,0.02,CLR,,0.81,WeatherDisplay:10.37,2013-02-27 01:42:00,
2013-02-26 20:48:00,58.5,57.9,29.27,SSE,158,1.2,1.2,98,0.02,CLR,,0.81,WeatherDisplay:10.37,2013-02-27 01:48:00,
2013-02-26 20:53:00,58.1,57.5,29.28,East,90,1.2,0.0,98,0.01,CLR,,0.81,WeatherDisplay:10.37,2013-02-27 01:53:00,
2013-02-26 20:58:00,58.1,57.5,29.28,SW,225,3.5,3.5,98,0.00,CLR,,0.81,WeatherDisplay:10.37,2013-02-27 01:58:00,
2013-02-26 21:03:00,58.1,57.5,29.28,NE,45,2.3,2.3,98,0.00,CLR,,0.81,WeatherDisplay:10.37,2013-02-27 02:03:00,
2013-02-26 21:08:00,58.1,57.5,29.28,NNE,22,2.3,2.3,98,0.00,CLR,,0.81,WeatherDisplay:10.37,2013-02-27 02:08:00,
2013-02-26 21:13:00,58.5,57.9,29.28,East,90,9.2,9.2,98,0.00,CLR,,0.81,WeatherDisplay:10.37,2013-02-27 02:13:00,
2013-02-26 21:18:00,58.5,57.9,29.28,South,180,5.8,5.8,98,0.00,CLR,,0.81,WeatherDisplay:10.37,2013-02-27 02:18:00,
2013-02-26 21:23:00,58.5,57.9,29.28,South,180,3.5,3.5,98,0.00,CLR,,0.81,WeatherDisplay:10.37,2013-02-27 02:23:00,
2013-02-26 21:29:00,58.5,57.9,29.29,NE,45,3.5,3.5,98,0.00,CLR,,0.81,WeatherDisplay:10.37,2013-02-27 02:29:00,
2013-02-26 21:34:00,58.3,57.7,29.29,SW,225,3.5,3.5,98,0.00,CLR,,0.81,WeatherDisplay:10.37,2013-02-27 02:34:00,
2013-02-26 21:39:00,58.5,57.9,29.29,East,90,5.8,5.8,98,0.00,CLR,,0.81,WeatherDisplay:10.37,2013-02-27 02:39:00,
2013-02-26 21:44:00,58.5,57.6,29.29,NE,45,5.8,5.8,97,0.00,CLR,,0.81,WeatherDisplay:10.37,2013-02-27 02:44:00,
2013-02-26 21:49:00,58.3,57.4,29.29,SE,135,3.5,3.5,97,0.00,CLR,,0.81,WeatherDisplay:10.37,2013-02-27 02:49:00,
2013-02-26 21:54:00,57.7,56.9,29.29,East,90,3.5,4.5,97,0.00,CLR,,0.81,WeatherDisplay:10.37,2013-02-27 02:54:00,
2013-02-26 21:59:00,57.7,56.6,29.30,NE,45,2.3,2.3,96,0.00,CLR,,0.81,WeatherDisplay:10.37,2013-02-27 02:59:00,
2013-02-26 22:04:00,57.7,56.6,29.29,East,90,5.8,5.8,96,0.00,CLR,,0.81,WeatherDisplay:10.37,2013-02-27 03:04:00,
2013-02-26 22:09:00,57.4,56.0,29.30,North,0,10.4,10.4,95,0.00,CLR,,0.81,WeatherDisplay:10.37,2013-02-27 03:09:00,
2013-02-26 22:10:00,55.4,42.6,29.44,NE,45,3.0,4.0,62,0.00,CLR,,0.00,WeatherDisplay:10.37,2013-02-27 03:10:00,
2013-02-26 22:14:00,57.4,54.8,29.30,SE,135,9.2,9.2,91,0.00,CLR,,0.81,WeatherDisplay:10.37,2013-02-27 03:14:00,
2013-02-26 22:19:00,57.4,53.2,29.30,NE,45,10.4,10.4,86,0.00,CLR,,0.81,WeatherDisplay:10.37,2013-02-27 03:19:00,
2013-02-26 22:20:00,56.1,41.5,29.44,ENE,58,3.0,7.0,58,0.00,CLR,,0.00,WeatherDisplay:10.37,2013-02-27 03:20:00,
2013-02-26 22:24:00,57.0,52.6,29.31,NNE,22,8.1,8.1,85,0.00,CLR,,0.81,WeatherDisplay:10.37,2013-02-27 03:24:00,
2013-02-26 22:29:00,56.7,51.9,29.31,NE,45,5.8,5.8,84,0.00,CLR,,0.81,WeatherDisplay:10.37,2013-02-27 03:29:00,
2013-02-26 22:30:00,56.1,41.5,29.44,ENE,68,3.0,7.0,58,0.00,CLR,,0.00,WeatherDisplay:10.37,2013-02-27 03:30:00,
2013-02-26 22:34:00,56.5,51.4,29.30,NE,45,6.9,6.9,83,0.00,CLR,,0.81,WeatherDisplay:10.37,2013-02-27 03:34:00,
2013-02-26 22:39:00,56.3,50.2,29.31,NNE,22,9.2,9.2,80,0.00,CLR,,0.81,WeatherDisplay:10.37,2013-02-27 03:39:00,
2013-02-26 22:40:00,55.2,40.2,29.44,East,90,7.0,10.0,57,0.00,CLR,,0.00,WeatherDisplay:10.37,2013-02-27 03:40:00,
2013-02-26 22:44:00,55.8,49.7,29.31,East,90,5.8,5.8,80,0.00,CLR,,0.81,WeatherDisplay:10.37,2013-02-27 03:44:00,
2013-02-26 22:49:00,55.4,48.7,29.31,SE,135,3.5,3.5,78,0.00,CLR,,0.81,WeatherDisplay:10.37,2013-02-27 03:49:00,
2013-02-26 22:50:00,57.6,42.0,29.45,ESE,117,3.0,10.0,56,0.00,CLR,,0.00,WeatherDisplay:10.37,2013-02-27 03:50:00,
2013-02-26 22:54:00,55.0,48.6,29.31,NE,45,3.5,3.5,79,0.00,CLR,,0.81,WeatherDisplay:10.37,2013-02-27 03:54:00,
2013-02-26 22:59:00,54.7,48.3,29.31,NNW,338,4.6,4.6,79,0.00,CLR,,0.81,WeatherDisplay:10.37,2013-02-27 03:59:00,
2013-02-26 23:00:00,57.6,42.0,29.45,SSW,202,3.0,4.0,56,0.00,CLR,,0.00,WeatherDisplay:10.37,2013-02-27 04:00:00,
2013-02-26 23:04:00,54.7,48.3,29.30,NNW,338,4.6,4.6,79,0.00,CLR,,0.81,WeatherDisplay:10.37,2013-02-27 04:04:00,
2013-02-26 23:09:00,54.3,47.6,29.30,NE,45,9.2,9.2,78,0.00,CLR,,0.81,WeatherDisplay:10.37,2013-02-27 04:09:00,
2013-02-26 23:10:00,58.8,41.7,29.45,South,180,3.0,5.0,53,0.00,CLR,,0.00,WeatherDisplay:10.37,2013-02-27 04:10:00,
2013-02-26 23:14:00,54.0,47.3,29.29,SE,135,6.9,6.9,78,0.00,CLR,,0.81,WeatherDisplay:10.37,2013-02-27 04:14:00,
2013-02-26 23:19:00,53.8,47.1,29.30,ESE,112,5.8,5.8,78,0.00,CLR,,0.81,WeatherDisplay:10.37,2013-02-27 04:19:00,
2013-02-26 23:20:00,59.7,42.6,29.45,SSE,153,1.0,5.0,53,0.00,CLR,,0.00,WeatherDisplay:10.37,2013-02-27 04:20:00,
2013-02-26 23:24:00,53.4,47.1,29.29,South,180,3.5,3.5,79,0.00,CLR,,0.81,WeatherDisplay:10.37,2013-02-27 04:24:00,
2013-02-26 23:29:00,53.1,47.1,29.30,NE,45,2.3,2.3,80,0.00,CLR,,0.81,WeatherDisplay:10.37,2013-02-27 04:29:00,
2013-02-26 23:30:00,59.7,42.6,29.45,East,90,1.0,3.0,53,0.00,CLR,,0.00,WeatherDisplay:10.37,2013-02-27 04:30:00,
2013-02-26 23:34:00,52.9,47.2,29.29,South,180,2.3,2.3,81,0.00,CLR,,0.81,WeatherDisplay:10.37,2013-02-27 04:34:00,
2013-02-26 23:39:00,52.5,47.2,29.29,South,180,1.2,0.0,82,0.00,CLR,,0.81,WeatherDisplay:10.37,2013-02-27 04:39:00,
2013-02-26 23:40:00,60.3,39.9,29.45,West,270,3.0,6.0,47,0.00,CLR,,0.00,WeatherDisplay:10.37,2013-02-27 04:40:00,
2013-02-26 23:44:00,52.2,46.8,29.29,South,180,0.0,0.0,82,0.00,CLR,,0.81,WeatherDisplay:10.37,2013-02-27 04:44:00,
2013-02-26 23:49:00,51.6,46.6,29.29,South,180,0.0,0.0,83,0.00,CLR,,0.81,WeatherDisplay:10.37,2013-02-27 04:49:00,
2013-02-26 23:50:00,60.3,40.5,29.44,West,259,3.0,6.0,48,0.00,CLR,,0.00,WeatherDisplay:10.37,2013-02-27 04:50:00,
2013-02-26 23:54:00,50.9,46.2,29.28,South,180,0.0,0.7,84,0.00,CLR,,0.81,WeatherDisplay:10.37,2013-02-27 04:54:00,
2013-02-26 23:59:00,50.5,46.2,29.28,South,180,1.2,0.0,85,0.00,CLR,,0.81,WeatherDisplay:10.37,2013-02-27 04:59:00,